Regional Weather Roundup
Issued by NWS

Home | Current Version | Previous Version | Graphics & Text | Print | Product List | Glossary On
Versions: 1 2 3 4 5 6 7 8 9 10 11 12 13 14 15 16 17 18 19 20 21 22 23 24 25 26 27 28 29 30 31 32 33 34 35 36 37 38 39 40 41 42 43 44 45 46 47 48 49 50
000
ASUS45 KTFX 030510
RWRMT
MONTANA REGIONAL WEATHER ROUNDUP
NATIONAL WEATHER SERVICE GREAT FALLS MT
1100 PM MDT WED SEP 02 2015

NOTE: "FAIR" INDICATES FEW OR NO CLOUDS BELOW 12000 FEET WITH NO
SIGNIFICANT WEATHER AND/OR OBSTRUCTIONS TO VISIBILITY.

MTZ001>007-043-030600-
WEST OF THE DIVIDE

CITY           SKY/WX    TMP DP  RH WIND       PRES   REMARKS
KALISPELL      CLOUDY    58  35  42 SW7       29.88F
MISSOULA       CLOUDY    59  41  51 NW14      29.91S
BUTTE          MOCLDY    57  37  47 E3        29.92S
MULLAN PASS    CLOUDY    41  36  82 S5        29.95F
DEER LODGE       N/A     57  39  51 CALM      29.94R
EUREKA           N/A     57  36  44 SE3       29.87
HAMILTON         N/A     59  41  51 N10       29.88R
LIBBY            N/A     57  39  51 CALM      29.88S
PLAINS           N/A     57  42  57 SE1       29.92F
RONAN            N/A     58  42  55 CALM      29.97F
$$

MTZ008-052>055-030600-
SOUTHWEST MONTANA

CITY           SKY/WX    TMP DP  RH WIND       PRES   REMARKS
BOZEMAN        PTCLDY    62  32  32 N9        29.81R
DILLON         CLEAR     62  28  27 NE8       29.84S
W YELLOWSTONE  PTCLDY    48  28  46 CALM      30.00S
$$

MTZ009-010-012-014-046-048-049-054-030600-
EAST SLOPES AND CENTRAL MONTANA

CITY           SKY/WX    TMP DP  RH WIND       PRES   REMARKS
CUT BANK       CLOUDY    55  37  50 E3        29.89S
GREAT FALLS    LGT RAIN  62  39  42 E5        29.87R
MALMSTROM AFB  CLOUDY    63  38  39 NE12      29.86R
HELENA         CLOUDY    67  39  35 SW3       29.85F
CONRAD           N/A     60  43  53 NW14      29.89R
$$

MTZ011-013-016-021-045-047-050-051-030600-
NORTH CENTRAL MONTANA

CITY           SKY/WX    TMP DP  RH WIND       PRES   REMARKS
HAVRE          CLOUDY    69  37  30 NW9       29.80R
LEWISTOWN      CLEAR     64  37  36 NW8       29.86R
N BAR RANCH      N/A     61  37  41 CALM      29.87R
CHINOOK          N/A     68  37  32 W5        29.79R
FORT BENTON      N/A     66  37  34 NW5       29.85R
$$

MTZ017>020-022>027-061-062-030600-
NORTHEAST MONTANA

CITY           SKY/WX    TMP DP  RH WIND       PRES   REMARKS
GLASGOW        PTCLDY    70  40  33 N14       29.66R
JORDAN           N/A     79  41  25 N18G26    29.66R
SIDNEY         CLOUDY    72  46  40 CALM        N/A
WOLF POINT     CLOUDY    73  46  38 E8        29.60S
MALTA            N/A     74  38  27 NW8       29.71R
PLENTYWOOD       N/A     77  41  27 NE10      29.64S
POPLAR           N/A     73  43  33 N6        29.62R
$$

MTZ028>42-056>058-030600-
SOUTHCENTRAL AND SOUTHEAST MONTANA

CITY           SKY/WX    TMP DP  RH WIND       PRES   REMARKS
BAKER          CLEAR     69  49  48 SE8       29.72S
BILLINGS       PTCLDY    76  29  17 N12       29.76R
LIVINGSTON     CLEAR     72  26  18 S12       29.80S
MILES CITY     PTCLDY    82  41  23 SE8       29.63F
FORSYTH          N/A     82  36  18 CALM      29.63S
LAUREL           N/A     71  31  23 W3        29.77R
$$

REGIONAL REPORTS...DAKOTAS

CITY           SKY/WX    TMP DP  RH WIND       PRES   REMARKS
WILLISTON      PTCLDY    81  52  36 S6        29.64S
MINOT          MOCLDY    69  61  75 SE6       29.70S
DICKINSON      MOCLDY    73  55  53 SE10      29.71F
CROSBY           N/A     77  57  50 S18G24    29.63F
BISMARCK       PTCLDY    72  69  90 E7        29.74S
GRAND FORKS    CLEAR     74  66  76 S15       29.80F
FARGO          CLEAR     74  68  81 SE13      29.81F
BUFFALO SD       N/A     76  52  43 SE3       29.69S
RAPID CITY     CLEAR     64  52  64 CALM      29.80F
$$

REGIONAL REPORTS...WYOMING/IDAHO/WASHINGTON

CITY           SKY/WX    TMP DP  RH WIND       PRES   REMARKS
GILLETTE       CLEAR     75  36  24 S17       29.83F
SHERIDAN       PTCLDY    64  41  42 S7        29.76F
BUFFALO WY     PTCLDY    74  32  21 SW10      29.88S
CODY           CLEAR     75  36  23 W9G16     29.86F
YELLOWSTONE LA   N/A     46  35  65 CALM      30.12F
IDAHO FALLS    MOCLDY    71  41  33 SE8       29.85F
SALMON         MOCLDY    63  34  34 CALM      29.76S
BOISE          PTCLDY    69  40  34 W13       29.74R
SPOKANE        PTCLDY    57  42  57 S6        29.86S
$$

REGIONAL REPORTS...ALBERTA

CITY           SKY/WX    TMP DP  RH WIND       PRES   REMARKS
EDMONTON       MOCLDY    45  39  81 W9        29.78R
CALGARY        PTCLDY    54  27  35 W13       29.83R
LETHBRIDGE     MOCLDY    54  36  50 W8        29.85R
MEDICINE HAT   CLEAR     59  45  58 NW6       29.82R
CARDSTON         N/A     50  34  53 S5          N/A
MILK RIVER       N/A     55  39  54 SW6         N/A
ONEFOUR          N/A     63  32  31 NW14        N/A
$$

REGIONAL REPORTS...SASKATCHEWAN

CITY           SKY/WX    TMP DP  RH WIND       PRES   REMARKS
SWIFT CURRENT  PTCLDY    63  39  42 W9        29.77S
REGINA         MOCLDY    68  52  56 NW7       29.67R
SASKATOON      MOCLDY    59  50  72 W10       29.68R
VAL MARIE        N/A     68  36  30 N13         N/A
ROCKGLEN         N/A     66  46  48 NW8         N/A
ASSINIBOIA       N/A     50  48  93 NW12        N/A
$$


USA.gov is the U.S. government's official web portal to all federal, state and local government web resources and services.